Showing default

POSAT 2, 63488

Orbit data source: Space-Track

POSAT 2, 63488 is a Portuguese payload satellite in SSO that was launched on Tue, 14 Jan 2025 UTC via an FALCON 9 launch vehicle from the Air Force Western Test Range (AFWTR). Payload-class satellites include a variety of spacecraft equipped with specific instruments for various scientific and technological missions. These include communications satellites like Starlink; space stations such as the ISS; scientific satellites like the Hubble; Earth observation satellites from companies like Planet Labs, Umbra, and HawkEye 360; GPS; miniature CubeSats for education and research; and military/defense satellites.

Loading next visibility...
Identifier
63488, 2025-009DR
Orbit
SSO
Country
Flag of PTPT / POR
Related business
Manufacturer
LUSO
Mission
Operational Commercial Communications
Bus & Motor
CUBESAT 3U, Unknown motor
Mass
5 kg wet, 5 kg dry
Launch date (UTC)
2025-01-14 (1 year ago)
Launch vehicle
FALCON 9
Launch site
Air Force Western Test Range (AFWTR)
Object type
Payload
Rocket body
Debris
Shape & HBR
Box + 2 Pan, 14.5 m
Radar Cross Section
0.048 m², Medium (>0.1 m² and < 1m²)

Expand to show TLE details & history
Last TLE update: 7 hours ago

TLE from 7 hours ago
0 POSAT 2
1 63488U 25009DR  26151.18962052  .00021059  00000-0  12106-2 0  9992
2 63488  97.4856 226.5605 0006231 189.7040 170.4072 15.12487939 64074
Epoch: 2026-05-31T04:33Z
TLE epoch observation values (Epoch: 2026-05-31T04:33:03.212Z)
Latitude
-0°
Longitude
-90.39775°
Altitude
535.938 km
Speed
7.592 km/s
True Right ascension
15h 06m 14s
True Declination
0° 00' 00"
Sunlit
Object was in full shadow at epoch
Visualization orbit readout
Latitude
Unknown
Longitude
Unknown
Altitude
Unknown
Speed
Unknown
Apparent Right ascension
Unknown
Apparent Declination
Unknown
Sunlit
N/A
Visualization observer readout
Local Sidereal Time
21:29:47
Azimuth
Unknown
Elevation
Unknown
Doppler factor
Unknown
Orbital elements
Apogee altitude
529.897 km
Perigee altitude
521.293 km
Semi-major axis
6,903.732 km
Eccentricity
0.00062
Inclination
97.4856°
RAAN
226.5605°
Arg. of periapsis
189.704°
True anomaly
170.41909°
Mean anomaly
170.4072°
Eccentric anomaly
170.41315°
Mean motion
3.78371 °/min
Orbital period
95.14 mins
BSTAR
0.0012106
Loading maneuver chart data...
Computing Atmospheric mass density...
Loading historical data...
Loading historical data...
Loading historical data...
Loading historical data...
Loading historical data...
Loading historical data...
Loading historical data...

Documentation

Showing up to 5 results
|